Location: Killam
(52.7910°N, 111.8608°W)
Time: 18:51:39
(UTC+00:00)

SEEDS - Visible Passes

Search period start: 07 March 2026 00:00
Search period end: 17 March 2026 00:00
Orbit: 478 x 480 km, 97.8° (Epoch: 7 March)

Date Brightness Start Highest point End Pass type
(mag) Time Alt. Az. Time Alt. Az. Time Alt. Az.
7 Mar ? 12:29:36 10° NNE 12:32:58 37° E 12:36:19 10° SSE visible
8 Mar ? 12:03:55 10° NE 12:06:40 20° E 12:09:23 10° SE visible
9 Mar ? 11:39:04 10° ENE 11:40:12 11° E 11:41:20 10° ESE visible
9 Mar ? 13:10:25 10° NNE 13:13:59 77° WNW 13:17:33 10° SSW visible
10 Mar ? 12:44:12 10° NNE 12:47:43 53° E 12:51:13 10° S visible
11 Mar ? 12:18:10 10° NE 12:21:18 28° E 12:24:24 10° SSE visible
12 Mar ? 11:52:32 10° NE 11:54:43 15° E 11:56:54 10° SE visible
13 Mar ? 12:58:20 10° NNE 13:01:56 77° ESE 13:05:29 10° S visible
14 Mar ? 12:32:01 10° NNE 12:35:23 38° E 12:38:44 10° SSE visible
15 Mar ? 12:05:57 10° NE 12:08:41 20° E 12:11:24 10° SE visible
16 Mar ? 11:40:44 10° ENE 11:41:51 11° E 11:42:57 10° ESE visible
